Hourly Data Report for October 22, 2020

VICTORIA UNIVERSITY CS
BRITISH COLUMBIA
Current Station Operator: ECCC - MSC

48°27'25.200" N
123°18'16.600" W
60.10 m
1018598
71783
WYJ

Download Data

Hourly Data (October 2020)
Hourly Data Report for October 22, 2020
TIME
LST
Temp Definition
°C
Dew Point Definition
°C
Rel Hum Definition
%
Precip. Amount Definition
mm

Wind Dir Definition
10's deg

Wind Spd Definition
km/h
Visibility Definition
km
Stn Press Definition
kPa
Hmdx Definition


Wind Chill Definition


Weather Definition


00:00 5.3 5.0 98 0.0 36 5   101.87     LegendNANA
01:00 4.1 2.8 91 0.0 36 4   101.92     LegendNANA
02:00 5.3 2.6 83 0.0 32 4   101.97     LegendNANA
03:00 4.2 1.3 81 0.0 4 3   101.98     LegendNANA
04:00 5.2 2.2 81 0.0 1 4   102.00     LegendNANA
05:00 5.7 2.8 81 0.0 36 7   102.03     LegendNANA
06:00 5.2 2.9 85 0.0 34 3   102.09     LegendNANA
07:00 5.3 3.3 87 0.0 35 3   102.13     LegendNANA
08:00 6.3 4.6 89 0.0 36 3   102.21     LegendNANA
09:00 8.6 4.9 77 0.0 34 6   102.25     LegendNANA
10:00 9.0 5.2 77 0.0 3 5   102.26     LegendNANA
11:00 8.2 5.0 80 0.0 36 8   102.27     LegendNANA
12:00 9.6 5.2 74 0.0 35 8   102.27     LegendNANA
13:00 9.7 4.8 71 0.0 3 5   102.22     LegendNANA
14:00 10.0 4.0 66 0.0 6 5   102.20     LegendNANA
15:00 9.7 4.9 72 0.0 11 2   102.18     LegendNANA
16:00 8.3 5.1 80 0.0 7 1   102.15     LegendNANA
17:00 6.0 4.6 91 0.0   0   102.14     LegendNANA
18:00 4.1 3.8 97 0.0 26 1   102.12     LegendNANA
19:00 3.9 3.6 98 0.0   0   102.08     LegendNANA
20:00 3.3 2.9 98 0.0   0   102.03     LegendNANA
21:00 3.2 3.0 98 0.0   0   101.98     LegendNANA
22:00 3.7 3.6 99 0.0   0   101.94     LegendNANA
23:00 4.5 4.3 99 0.0 0 1   101.93     LegendNANA

Notes on Data Quality.

Legend

  • E = Estimated
  • M = Missing
  • NA = Not Available*
  • [empty] = Indicates an unobserved value
Date modified: